Location: ?????????
(54.7630°N, 39.4991°E)
Time: 22:37:27
(UTC+00:00)

Cosmos 968 Rocket - Pass Details

Date: 14 April 2026
Orbit: 735 x 765 km, 74.0° (Epoch: 13 May)

Event Time Altitude Azimuth Distance (km) Brightness Sun altitude
Rises 21:12:24 0° 333° (NNW) 3,214 7.8 -25.5°
Reaches altitude 10° 21:14:50 10° 339° (NNW) 2,291 6.9 -25.6°
Maximum altitude 21:19:54 51° 55° (NE) 957 4.1 -25.6°
Enters shadow 21:21:11 41° 98° (E) 1,095 4.2 -25.6°
